Wind_Speed
18 19 21 20 14 5 4 5 1 2 2 1 3 2 4 1 2 1 1 3 5 5 4 5 2 4 5 4 3 2 2 5 4 3 3 5 3 3 3 3 2 1 2 4
19 20 21 19 11 6 5 3 2 0 3 3 3 1 3 3 1 1 2 2 4 2 2 1 4 5 2 4 5 4 5 3 4 2 1 2 2 4 3 4 3 3 2 3
18 20 21 19 8 9 4 3 2 1 1 2 4 3 3 3 2 1 3 3 1 3 2 3 4 5 1 2 3 4 4 4 3 3 3 3 4 5 7 5 3 3 5 5
17 19 20 19 11 9 4 1 1 2 0 2 4 1 1 4 3 2 2 3 4 4 3 4 3 4 4 2 1 1 3 3 3 3 3 3 2 5 8 9 7 3 1 3
15 18 19 19 16 8 1 3 3 2 2 1 4 3 2 2 3 3 3 1 2 5 4 5 5 5 4 2 2 0 2 1 2 2 4 2 4 7 7 9 9 9 8 7
13 15 18 19 17 9 4 3 2 2 1 2 3 2 3 4 3 1 4 3 1 7 4 5 5 5 6 6 2 3 1 3 1 1 1 4 6 11 13 7 6 8 7 6
11 12 15 17 16 13 4 4 3 2 0 2 2 3 2 4 3 2 3 5 4 2 1 1 5 6 6 6 6 6 2 2 2 2 1 1 4 3 4 14 5 6 4 3
9 10 12 15 16 11 7 5 4 3 3 3 3 1 3 5 3 3 5 5 3 5 2 1 2 2 2 4 5 3 4 1 1 2 3 4 2 2 3 6 3 3 5 3
8 8 10 12 14 12 6 7 6 3 2 3 5 1 2 2 3 2 3 2 6 3 1 1 2 3 3 3 3 3 3 2 2 2 2 3 2 3 4 2 1 4 7 4
9 7 7 9 11 12 6 3 8 3 2 3 4 1 1 2 2 3 4 4 2 3 2 2 3 2 2 2 5 4 3 2 5 3 3 6 4 5 2 4 4 5 3 3
10 10 7 6 8 10 9 4 6 3 3 2 4 4 1 1 2 1 3 3 1 1 1 1 1 1 3 1 3 5 6 6 4 3 4 7 6 4 5 5 4 5 4 2
11 9 7 5 5 7 8 2 8 4 2 1 1 0 0 2 2 1 1 1 2 1 2 0 1 1 2 2 2 4 3 3 3 7 4 2 4 6 6 5 4 3 2 2
12 10 7 5 4 5 6 2 7 3 2 2 2 1 0 1 1 1 2 1 2 2 1 1 1 2 2 2 4 4 4 2 2 3 3 7 6 6 5 3 4 3 2 1
14 10 7 6 5 4 5 1 4 2 4 2 1 3 3 2 2 1 2 2 1 2 0 1 1 2 2 2 2 2 3 4 4 3 4 5 4 6 6 5 4 4 3 1
16 11 8 8 5 4 3 2 1 2 1 2 1 2 1 3 1 2 1 2 1 1 0 0 3 1 1 1 1 4 6 6 5 5 4 4 5 7 5 5 4 3 3 4
18 13 11 10 7 3 2 2 0 1 2 1 2 1 2 4 3 2 2 1 1 0 1 2 0 2 0 2 4 4 5 4 3 4 6 7 9 7 4 6 4 3 2 2
20 15 14 12 8 5 2 0 1 1 1 1 2 0 2 2 1 2 0 1 0 0 2 1 1 2 1 2 3 2 6 6 5 7 8 5 5 5 6 6 5 2 2 4
23 18 15 12 9 4 4 7 6 3 2 1 1 2 1 2 1 1 2 1 0 1 1 0 2 1 1 4 6 3 5 7 7 5 5 5 8 8 5 4 3 0 0 2
23 22 17 11 4 4 4 4 4 5 2 2 2 3 2 2 1 2 1 1 1 1 2 2 2 3 6 6 5 6 5 6 8 7 6 7 8 7 5 3 4 4 5 5
27 21 7 3 5 7 10 2 2 0 1 1 3 2 2 3 2 1 2 0 1 1 2 2 2 4 6 4 1 3 7 8 9 8 5 5 4 3 2 2 2 3 5 9
14 4 2 8 15 3 1 2 3 3 3 4 2 3 3 2 3 3 2 2 1 2 2 3 2 3 0 4 5 6 8 8 6 8 7 6 5 1 2 4 5 8 11 12
18 15 10 8 3 2 4 4 2 5 6 4 5 3 2 2 1 2 1 2 0 4 2 2 3 3 1 1 6 6 8 10 8 9 6 3 2 3 5 8 11 14 17 21
20 5 4 4 3 6 8 10 4 4 5 5 4 4 4 2 0 3 2 3 3 2 2 3 4 2 4 6 6 7 9 10 7 4 2 4 7 10 11 14 20 20 21 25
3 6 7 7 5 7 5 5 5 3 7 9 5 3 3 2 2 3 3 2 1 3 4 5 2 5 6 5 5 6 5 4 1 3 7 9 12 16 18 21 23 23 21 25
5 5 8 8 3 2 2 4 4 2 8 6 4 3 2 2 3 2 3 3 4 4 4 2 2 6 6 5 4 4 2 2 4 8 9 15 19 19 20 24 25 26 27 25
5 4 5 3 5 4 3 5 7 4 7 3 2 3 4 3 3 4 5 4 5 3 2 2 4 6 4 3 3 5 6 8 11 14 15 16 17 18 19 23 25 30 28 26
7 3 1 4 5 7 7 7 6 10 5 3 3 6 4 3 3 4 4 4 2 3 2 2 6 5 4 5 6 9 11 11 13 15 17 19 22 23 23 18 27 28 28 31
Wind_Direction
359 356 355 348 347 350 342 282 276 220 164 44 67 44 116 94 121 180 330 308 52 43 318 35 64 104 49 350 314 7 49 117 139 80 54 36 358 327 193 112 197 287 161 260
1 1 4 2 16 38 338 287 21 218 146 74 71 100 74 338 195 145 231 98 7 347 39 70 56 83 40 1 39 30 352 99 97 48 64 79 245 195 282 77 46 221 126 240
3 5 7 13 17 18 3 293 2 9 77 305 103 160 105 116 94 17 337 67 236 204 109 341 140 126 93 21 72 323 305 16 68 138 127 106 183 199 184 165 139 226 214 144
4 6 9 10 8 347 358 260 44 349 181 50 84 269 171 152 149 252 244 182 338 334 135 154 104 101 147 149 153 284 11 80 65 17 93 9 316 177 183 205 225 182 62 53
359 6 9 10 7 355 21 347 343 215 111 178 248 151 74 125 139 330 134 101 56 11 63 16 160 150 194 116 192 212 6 108 80 295 92 271 260 259 233 215 241 261 284 297
353 3 8 11 11 15 335 10 246 273 169 180 275 52 76 99 141 77 27 12 236 93 61 55 40 46 42 54 125 156 152 120 91 110 170 288 289 220 207 194 182 199 227 226
346 357 5 12 15 23 32 5 303 295 100 289 53 133 106 130 58 87 86 3 350 103 180 180 84 64 65 73 33 19 131 94 86 228 306 268 222 65 267 196 169 215 255 304
336 350 358 8 15 18 43 8 344 351 307 28 134 142 105 118 143 64 74 37 8 172 219 228 153 156 147 100 37 17 19 314 130 120 223 263 155 219 138 149 210 346 205 122
321 338 349 359 9 14 37 6 9 302 328 54 341 155 166 209 157 123 93 50 12 360 255 239 245 207 134 161 119 12 350 353 77 159 262 257 83 120 31 47 236 77 86 63
301 319 332 350 1 8 11 345 11 306 306 47 356 334 336 20 34 86 126 158 161 8 213 236 219 208 21 176 182 167 159 181 189 218 263 289 163 157 152 113 215 130 92 65
286 294 306 326 347 359 7 313 1 30 320 75 2 6 294 200 285 190 133 101 289 120 291 274 234 316 196 338 138 173 170 155 194 186 213 274 143 92 174 164 94 94 77 80
273 277 282 291 326 348 4 346 339 346 248 345 35 15 168 33 21 26 157 323 146 155 202 217 43 287 110 267 270 19 245 198 191 182 221 65 130 96 85 73 118 124 146 51
259 271 254 279 294 336 358 323 327 332 260 196 185 131 314 84 7 326 151 68 44 74 61 44 93 244 87 220 239 176 245 124 227 19 157 168 147 96 94 108 122 118 93 79
247 260 242 257 284 311 348 34 327 325 282 283 129 105 111 339 356 335 342 37 90 92 173 172 209 220 68 287 245 218 192 120 210 247 141 89 136 131 138 134 132 109 79 89
236 245 224 235 258 293 331 343 328 65 110 304 29 100 35 360 349 138 164 232 258 213 138 183 233 141 130 210 23 238 182 191 170 223 154 121 127 129 121 123 104 69 26 6
231 230 215 222 222 261 330 168 160 103 85 91 301 83 54 35 102 136 119 107 271 264 179 221 234 53 13 253 234 248 171 84 60 156 84 95 121 118 115 123 112 80 29 11
226 220 207 212 210 207 227 327 133 169 17 104 318 240 80 4 1 38 63 294 216 160 210 223 305 176 167 254 246 223 141 135 109 111 110 88 156 154 128 118 100 93 238 246
222 202 194 192 193 205 260 247 234 225 123 78 189 255 189 173 177 124 335 149 317 291 290 31 197 95 214 251 236 132 133 125 124 109 55 119 122 110 101 118 154 34 35 354
217 177 166 154 155 192 200 164 159 193 193 206 153 198 228 178 96 102 72 352 194 23 256 222 121 215 225 234 242 167 163 165 148 122 103 100 105 119 108 66 20 352 320 315
186 149 142 174 178 158 134 93 141 124 220 249 213 112 163 165 159 168 108 198 235 220 212 100 223 261 268 287 254 301 141 132 134 121 114 107 108 105 56 8 294 275 285 299
156 140 102 125 137 123 134 175 212 158 228 195 210 173 144 215 141 165 172 190 197 254 220 205 219 261 302 353 96 90 103 107 101 105 105 102 111 124 297 302 290 292 292 286
164 130 124 132 115 216 169 193 160 208 214 160 162 166 116 156 178 124 172 168 76 242 148 232 246 250 16 319 116 100 102 108 101 107 119 134 199 267 275 280 284 291 298 298
118 103 142 170 153 198 194 182 205 206 162 162 161 137 136 114 304 79 126 181 223 121 213 238 232 181 120 116 105 96 101 101 101 86 13 319 299 296 291 291 294 294 290 291
143 159 178 203 182 224 194 171 156 163 134 141 135 114 128 127 128 125 178 146 149 231 233 236 218 158 132 116 128 118 120 111 134 263 282 286 285 283 286 284 286 285 277 282
165 174 197 196 178 42 92 98 92 108 143 133 113 85 113 131 124 194 116 166 235 221 229 213 165 139 130 137 129 127 164 253 258 261 256 262 269 269 273 288 294 293 284 278
153 200 161 152 121 154 118 135 136 155 144 96 74 122 151 166 166 166 198 191 219 232 174 173 119 128 131 157 205 228 247 262 270 271 271 274 276 274 279 291 288 284 279 278
156 177 232 166 117 163 163 154 155 161 145 136 147 159 168 114 180 202 182 204 199 159 156 145 158 171 196 216 237 252 268 276 275 276 279 278 285 286 283 277 277 277 278 276
Height
799 795 791 786 782 780 780 777 775 774 774 774 773 784 779 781 783 784 782 781 778 779 778 779 778 786 790 788 786 784 784 793 819 803 803 802 803 800 798 819 815 816 821 824
800 796 792 786 783 782 781 775 772 773 772 780 783 782 784 783 783 782 781 781 780 779 782 787 784 791 790 789 792 795 791 793 825 813 810 806 808 802 801 806 814 817 830 821
800 797 793 789 786 784 783 780 782 773 771 772 773 778 781 785 786 784 782 781 779 782 783 781 788 793 794 792 793 796 794 790 798 810 803 798 807 802 804 810 837 813 812 810
801 798 794 790 788 786 785 779 782 781 780 779 777 777 778 782 784 785 783 783 781 780 786 785 788 791 796 794 796 792 794 799 810 797 797 800 798 801 806 813 809 810 802 801
802 799 795 791 788 786 785 786 783 782 780 780 778 784 780 780 786 786 784 784 784 783 788 791 788 786 787 787 794 792 795 806 805 820 804 806 809 804 801 805 806 806 805 808
803 800 797 793 790 788 787 786 785 786 785 778 778 781 781 781 782 788 786 784 783 790 795 793 791 790 791 792 793 796 797 808 816 807 805 807 815 801 799 797 795 800 811 800
803 801 798 795 793 791 792 792 790 785 781 780 778 780 780 782 784 784 788 787 786 796 794 793 793 795 795 797 800 799 800 803 817 831 811 824 787 788 789 790 789 792 792 794
803 801 799 797 795 793 793 793 792 788 785 781 782 783 782 786 789 790 790 796 796 795 795 798 801 801 800 803 806 802 805 803 815 831 814 787 790 790 789 791 794 789 792 792
803 801 800 798 796 795 794 793 793 792 790 787 784 783 783 785 787 793 798 800 798 798 797 797 795 799 789 808 811 809 808 807 816 816 810 794 786 786 784 784 802 792 793 795
802 801 799 798 798 797 796 795 794 794 790 789 788 786 787 784 785 792 796 800 802 801 801 800 799 796 793 803 803 821 819 816 824 821 815 795 783 786 784 795 796 793 794 798
799 799 799 798 798 797 797 797 795 795 793 791 791 791 789 789 788 788 797 800 802 805 803 797 793 797 800 794 789 802 808 819 820 812 809 810 784 788 790 792 791 794 798 801
797 797 797 797 797 797 796 797 797 796 796 795 794 793 794 794 794 792 794 794 791 793 797 797 796 797 799 792 791 790 803 790 793 795 792 783 784 789 790 791 794 796 799 801
796 795 795 796 796 796 796 796 797 796 795 794 795 794 795 795 794 795 794 795 794 795 798 798 798 797 794 795 795 787 789 786 793 788 783 786 787 790 792 793 795 797 799 800
793 793 794 795 796 795 795 794 795 797 796 794 795 794 795 796 795 795 796 796 796 796 797 797 797 797 795 794 793 794 790 791 788 786 782 785 787 789 792 794 795 796 797 798
789 790 791 793 795 795 794 793 794 795 799 796 794 795 796 796 796 795 796 796 797 798 800 802 801 796 798 796 800 796 783 782 787 783 775 782 787 791 793 796 797 799 800 800
785 787 789 790 792 794 794 794 795 795 795 797 797 799 798 797 796 797 796 796 797 797 798 799 796 798 800 801 792 767 769 771 772 775 777 779 785 789 791 794 796 797 799 799
781 784 787 789 790 792 794 794 795 794 795 795 798 799 800 800 799 800 800 799 799 799 798 800 797 800 800 798 792 767 769 773 776 778 780 787 787 789 790 792 794 795 796 795
776 780 784 787 790 792 792 791 793 794 795 796 800 796 799 799 799 802 802 802 802 802 801 801 799 801 800 795 771 769 770 773 777 780 781 780 786 790 792 792 793 793 793 793
773 774 781 786 789 790 789 790 792 793 797 796 798 794 788 798 799 801 803 803 804 805 804 802 802 797 792 773 768 769 771 775 779 783 785 787 790 792 793 794 795 797 797 796
768 773 778 783 785 787 789 791 793 793 792 794 793 790 796 797 798 799 803 803 803 808 803 805 803 790 772 769 768 768 770 775 779 785 790 791 792 792 793 794 795 795 795 793
761 768 774 782 785 787 789 790 792 789 790 786 787 787 792 796 794 794 797 798 803 802 805 802 791 788 773 772 772 771 773 777 781 783 786 789 791 794 794 793 791 790 788 787
753 764 773 780 783 787 784 784 786 785 779 778 781 786 785 792 792 791 800 801 804 801 802 798 789 783 775 775 777 777 778 780 783 785 788 789 791 791 790 789 787 785 783 782
752 763 769 769 776 772 770 767 778 776 770 776 779 783 787 792 792 793 794 797 797 802 799 788 788 778 775 777 779 781 781 781 783 786 788 789 789 789 788 785 782 780 778 775
745 752 756 752 757 750 742 742 746 755 758 767 773 781 782 786 790 791 791 794 797 797 790 792 783 778 779 780 781 781 783 783 784 784 785 785 785 784 782 780 778 776 773 769
732 736 728 733 731 737 738 740 747 754 756 763 773 779 779 786 787 790 792 797 791 782 785 782 779 776 778 781 781 782 783 783 783 781 780 779 779 778 777 775 774 770 766 763
718 720 716 720 729 737 739 741 747 750 756 761 766 774 774 778 777 782 780 781 783 775 778 779 777 779 780 781 781 782 781 781 780 779 777 775 774 773 771 769 767 762 759 756
704 708 711 712 716 723 728 731 739 743 749 753 759 763 763 776 773 775 772 774 767 768 775 776 775 776 777 778 779 778 777 776 775 774 772 770 769 768 765 761 756 753 751 747